When you browse on this site, cookies collect data to enhance your experience and personalize the content and advertising you see.
Visit our Privacy Policy to learn more. By continuing to use the site, you agree to this use of cookies and data.
  • In United Kingdom
  • List of Countries
  • For 7 days
  • Water Temperature
  • Weather Map
  • Weather Widgets
  • user-avatar
    Login

    Hourly Weather Bletchley

    Today, 21 September, Saturday

    Time Temperature Precipitation Wind Pressure Humidity
    00:00 +13°C° 0 mm 4 mps 755 mmHg 71%
    01:00 +12°C° 0 mm 4 mps 754 mmHg 72%
    02:00 +12°C° 0 mm 4 mps 754 mmHg 72%
    03:00 +12°C° 0 mm 4 mps 753 mmHg 72%
    04:00 +12°C° 0 mm 4 mps 753 mmHg 72%
    05:00 +11°C° 0 mm 4 mps 752 mmHg 72%
    06:00 +11°C° 0 mm 4 mps 752 mmHg 72%
    07:00 +13°C° 0 mm 5 mps 752 mmHg 67%
    08:00 +14°C° 0 mm 5 mps 752 mmHg 63%
    09:00 +16°C° 0 mm 6 mps 751 mmHg 58%
    10:00 +17°C° 0 mm 6 mps 751 mmHg 55%
    11:00 +20°C° 0 mm 5 mps 751 mmHg 52%
    12:00 +21°C° 0 mm 5 mps 750 mmHg 49%
    13:00 +22°C° 0 mm 5 mps 750 mmHg 49%
    14:00 +22°C° 0 mm 5 mps 749 mmHg 50%
    15:00 +23°C° 0 mm 5 mps 749 mmHg 50%
    16:00 +22°C° 0 mm 5 mps 748 mmHg 56%
    17:00 +20°C° 0 mm 4 mps 748 mmHg 62%
    18:00 +19°C° 0 mm 4 mps 747 mmHg 67%
    19:00 +18°C° 0 mm 4 mps 747 mmHg 69%
    20:00 +18°C° 0 mm 4 mps 747 mmHg 70%
    21:00 +17°C° 0 mm 4 mps 747 mmHg 72%
    22:00 +18°C° 0 mm 4 mps 746 mmHg 73%
    23:00 +18°C° 0 mm 4 mps 746 mmHg 74%

    Tomorrow, 22 September, Sunday

    Time Temperature Precipitation Wind Pressure Humidity
    00:00 +18°C° 0 mm 4 mps 746 mmHg 75%
    01:00 +18°C° 0.1 mm 4 mps 745 mmHg 77%
    02:00 +18°C° 0.1 mm 4 mps 745 mmHg 79%
    03:00 +18°C° 0.1 mm 4 mps 744 mmHg 81%
    04:00 +17°C° 0.2 mm 3 mps 744 mmHg 84%
    05:00 +17°C° 0.2 mm 3 mps 744 mmHg 87%
    06:00 +17°C° 0.2 mm 3 mps 743 mmHg 90%
    07:00 +18°C° 0 mm 4 mps 743 mmHg 86%
    08:00 +19°C° 0 mm 5 mps 743 mmHg 82%
    09:00 +21°C° 0 mm 6 mps 743 mmHg 78%
    10:00 +19°C° 1.1 mm 5 mps 743 mmHg 81%
    11:00 +17°C° 1.1 mm 4 mps 743 mmHg 84%
    12:00 +14°C° 1.1 mm 4 mps 744 mmHg 88%
    13:00 +15°C° 0.1 mm 5 mps 744 mmHg 83%
    14:00 +16°C° 0.1 mm 5 mps 744 mmHg 78%
    15:00 +17°C° 0.1 mm 6 mps 744 mmHg 73%
    16:00 +17°C° 0 mm 5 mps 744 mmHg 76%
    17:00 +16°C° 0 mm 5 mps 744 mmHg 78%
    18:00 +15°C° 0 mm 4 mps 744 mmHg 80%
    19:00 +15°C° 0 mm 4 mps 744 mmHg 84%
    20:00 +14°C° 0 mm 4 mps 744 mmHg 87%
    21:00 +13°C° 0 mm 4 mps 745 mmHg 90%
    22:00 +13°C° 0 mm 4 mps 745 mmHg 91%
    23:00 +13°C° 0 mm 5 mps 745 mmHg 92%

    Day after tomorrow, 23 September, Monday

    Time Temperature Precipitation Wind Pressure Humidity
    00:00 +11°C° 0 mm 6 mps 745 mmHg 94%
    01:00 +11°C° 0 mm 6 mps 746 mmHg 91%
    02:00 +11°C° 0 mm 6 mps 746 mmHg 88%
    03:00 +11°C° 0 mm 6 mps 746 mmHg 86%
    04:00 +10°C° 0 mm 5 mps 747 mmHg 87%
    05:00 +10°C° 0 mm 5 mps 747 mmHg 89%
    06:00 +10°C° 0 mm 4 mps 747 mmHg 90%
    07:00 +12°C° 0 mm 4 mps 747 mmHg 86%
    08:00 +13°C° 0 mm 4 mps 748 mmHg 81%
    09:00 +15°C° 0 mm 4 mps 748 mmHg 77%
    10:00 +16°C° 0.1 mm 5 mps 748 mmHg 71%
    11:00 +17°C° 0.1 mm 6 mps 748 mmHg 66%
    12:00 +18°C° 0.1 mm 7 mps 748 mmHg 60%
    13:00 +17°C° 0.1 mm 6 mps 747 mmHg 64%
    14:00 +17°C° 0.1 mm 6 mps 747 mmHg 67%
    15:00 +16°C° 0.1 mm 6 mps 746 mmHg 71%
    16:00 +15°C° 1.4 mm 6 mps 746 mmHg 78%
    17:00 +15°C° 1.4 mm 6 mps 745 mmHg 84%
    18:00 +14°C° 1.4 mm 7 mps 745 mmHg 91%
    19:00 +14°C° 0.9 mm 7 mps 745 mmHg 92%
    20:00 +15°C° 0.9 mm 7 mps 745 mmHg 92%
    21:00 +15°C° 0.9 mm 7 mps 744 mmHg 93%
    22:00 +15°C° 1.2 mm 6 mps 744 mmHg 93%
    23:00 +16°C° 1.2 mm 5 mps 744 mmHg 93%

    24 September, Tuesday

    Time Temperature Precipitation Wind Pressure Humidity
    00:00 +17°C° 1.2 mm 4 mps 743 mmHg 94%
    01:00 +17°C° 0.2 mm 4 mps 743 mmHg 93%
    02:00 +16°C° 0.2 mm 5 mps 743 mmHg 93%
    03:00 +16°C° 0.2 mm 5 mps 743 mmHg 93%
    04:00 +15°C° 0.2 mm 4 mps 742 mmHg 94%
    05:00 +15°C° 0.2 mm 4 mps 742 mmHg 94%
    06:00 +15°C° 0.2 mm 4 mps 741 mmHg 95%
    07:00 +15°C° 3.2 mm 5 mps 741 mmHg 94%
    08:00 +15°C° 3.2 mm 5 mps 741 mmHg 93%
    09:00 +16°C° 3.2 mm 6 mps 741 mmHg 92%
    10:00 +17°C° 0.5 mm 6 mps 741 mmHg 85%
    11:00 +17°C° 0.5 mm 7 mps 741 mmHg 78%
    12:00 +18°C° 0.5 mm 8 mps 741 mmHg 71%
    13:00 +18°C° 0 mm 8 mps 740 mmHg 70%
    14:00 +18°C° 0 mm 8 mps 740 mmHg 70%
    15:00 +17°C° 0 mm 8 mps 740 mmHg 69%
    16:00 +16°C° 0.2 mm 8 mps 740 mmHg 74%
    17:00 +15°C° 0.2 mm 8 mps 740 mmHg 78%
    18:00 +13°C° 0.2 mm 8 mps 739 mmHg 82%
    19:00 +13°C° 0.1 mm 8 mps 739 mmHg 83%
    20:00 +14°C° 0.1 mm 7 mps 739 mmHg 85%
    21:00 +14°C° 0.1 mm 7 mps 739 mmHg 86%
    22:00 +13°C° 0 mm 8 mps 738 mmHg 85%
    23:00 +13°C° 0 mm 8 mps 738 mmHg 84%

    25 September, Wednesday

    Time Temperature Precipitation Wind Pressure Humidity
    00:00 +12°C° 0 mm 9 mps 737 mmHg 83%
    01:00 +12°C° 0.1 mm 8 mps 737 mmHg 84%
    02:00 +12°C° 0.1 mm 8 mps 737 mmHg 86%
    03:00 +12°C° 0.1 mm 7 mps 737 mmHg 87%
    04:00 +12°C° 0 mm 7 mps 738 mmHg 88%
    05:00 +13°C° 0 mm 6 mps 738 mmHg 89%
    06:00 +11°C° 0 mm 6 mps 738 mmHg 90%
    07:00 +13°C° 0.2 mm 6 mps 739 mmHg 87%
    08:00 +14°C° 0.2 mm 6 mps 739 mmHg 84%
    09:00 +15°C° 0.2 mm 6 mps 740 mmHg 81%
    10:00 +15°C° 0.7 mm 7 mps 740 mmHg 80%
    11:00 +15°C° 0.7 mm 7 mps 741 mmHg 79%
    12:00 +15°C° 0.7 mm 8 mps 741 mmHg 78%
    13:00 +16°C° 0.4 mm 8 mps 741 mmHg 76%
    14:00 +16°C° 0.4 mm 8 mps 741 mmHg 74%
    15:00 +16°C° 0.4 mm 8 mps 741 mmHg 72%
    16:00 +15°C° 0.1 mm 6 mps 741 mmHg 78%
    17:00 +14°C° 0.1 mm 5 mps 741 mmHg 83%
    18:00 +13°C° 0.1 mm 4 mps 741 mmHg 88%
    19:00 +13°C° 0.1 mm 3 mps 741 mmHg 91%
    20:00 +13°C° 0.1 mm 3 mps 740 mmHg 93%
    21:00 +14°C° 0.1 mm 2 mps 740 mmHg 96%
    22:00 +14°C° 0.2 mm 2 mps 740 mmHg 96%
    23:00 +13°C° 0.2 mm 3 mps 739 mmHg 96%

    26 September, Thursday

    Time Temperature Precipitation Wind Pressure Humidity
    00:00 +14°C° 0.2 mm 3 mps 739 mmHg 96%
    01:00 +14°C° 0.9 mm 4 mps 739 mmHg 96%
    02:00 +15°C° 0.9 mm 5 mps 738 mmHg 95%
    03:00 +15°C° 0.9 mm 6 mps 738 mmHg 95%
    04:00 +15°C° 0.3 mm 7 mps 738 mmHg 93%
    05:00 +15°C° 0.3 mm 7 mps 737 mmHg 92%
    06:00 +15°C° 0.3 mm 7 mps 737 mmHg 90%
    07:00 +16°C° 0.1 mm 7 mps 738 mmHg 87%
    08:00 +16°C° 0.1 mm 7 mps 738 mmHg 83%
    09:00 +17°C° 0.1 mm 7 mps 738 mmHg 80%
    10:00 +17°C° 0.2 mm 8 mps 738 mmHg 76%
    11:00 +18°C° 0.2 mm 8 mps 738 mmHg 72%
    12:00 +18°C° 0.2 mm 9 mps 739 mmHg 68%
    13:00 +17°C° 0.1 mm 9 mps 739 mmHg 67%
    14:00 +17°C° 0.1 mm 9 mps 739 mmHg 65%
    15:00 +16°C° 0.1 mm 9 mps 739 mmHg 64%
    16:00 +15°C° 0.1 mm 8 mps 739 mmHg 69%
    17:00 +14°C° 0.1 mm 7 mps 739 mmHg 74%
    18:00 +13°C° 0.1 mm 6 mps 739 mmHg 79%
    19:00 +13°C° 0 mm 6 mps 739 mmHg 80%
    20:00 +11°C° 0 mm 7 mps 739 mmHg 81%
    21:00 +11°C° 0 mm 7 mps 739 mmHg 81%
    22:00 +11°C° 0 mm 7 mps 739 mmHg 82%
    23:00 +11°C° 0 mm 7 mps 739 mmHg 83%
    Show more